Вернуться в каталог

STARLINK-32697

АктивенСвязьVLEO
NORAD 62436·PAYLOAD·🇺🇸 United States

Запущен Dec 29, 2024 с Vandenberg Space Force Base

Loading…

Ближайшие Пролёты (ближайшие 24 часа)

TLE

СвежийSource: CelesTrak SupGP

Эпоха: Sep 14, 2026, 21:38 UTC

1 62436C 24251E   26257.90187500 -.00017699  00000+0 -52271-3 0  2577
2 62436  53.1582 175.5725 0001238  92.5456 131.2982 15.34411391    13

Отслеживайте STARLINK-32697 в реальном времени с AllMySat

Download on the App Store